Date_Time,Julian_Date,Latitude,Longitude,Instrument_Depth,U,V,Speed,Direction
(yyyy-mm-dd hh:mn:ss UTC),(JD),(+ deg. North),(+ deg. East),(m),(cm/s),(cm/s),(cm/s),(deg True)
1981-05-12 21:30:00 UTC,2444737.395833,29.7139,-93.4733,0049,6.58,-6.14,9.0000,133.0000
1981-05-12 22:00:00 UTC,2444737.416667,29.7139,-93.4733,0049,7.87,-4.36,9.0000,119.0000
1981-05-12 22:30:00 UTC,2444737.437500,29.7139,-93.4733,0049,7.73,-2.07,8.0000,105.0000
1981-05-12 23:00:00 UTC,2444737.458333,29.7139,-93.4733,0049,7.90,-1.25,8.0000,99.0000
1981-05-12 23:30:00 UTC,2444737.479167,29.7139,-93.4733,0049,7.96,-0.84,8.0000,96.0000
1981-05-13 00:00:00 UTC,2444737.500000,29.7139,-93.4733,0049,7.00,0.00,7.0000,90.0000
1981-05-13 00:30:00 UTC,2444737.520833,29.7139,-93.4733,0049,6.93,0.97,7.0000,82.0000
1981-05-13 01:00:00 UTC,2444737.541667,29.7139,-93.4733,0049,5.93,0.94,6.0000,81.0000
1981-05-13 01:30:00 UTC,2444737.562500,29.7139,-93.4733,0049,5.93,0.94,6.0000,81.0000
1981-05-13 02:00:00 UTC,2444737.583333,29.7139,-93.4733,0049,5.89,1.14,6.0000,79.0000
1981-05-13 02:30:00 UTC,2444737.604167,29.7139,-93.4733,0049,4.94,0.78,5.0000,81.0000
1981-05-13 03:00:00 UTC,2444737.625000,29.7139,-93.4733,0049,4.99,0.35,5.0000,86.0000
1981-05-13 03:30:00 UTC,2444737.645833,29.7139,-93.4733,0049,4.99,0.26,5.0000,87.0000
1981-05-13 04:00:00 UTC,2444737.666667,29.7139,-93.4733,0049,4.98,0.44,5.0000,85.0000
1981-05-13 04:30:00 UTC,2444737.687500,29.7139,-93.4733,0049,4.00,0.14,4.0000,88.0000
1981-05-13 05:00:00 UTC,2444737.708333,29.7139,-93.4733,0049,3.94,-0.69,4.0000,100.0000
1981-05-13 05:30:00 UTC,2444737.729167,29.7139,-93.4733,0049,3.86,-1.04,4.0000,105.0000
1981-05-13 06:00:00 UTC,2444737.750000,29.7139,-93.4733,0049,3.96,-0.56,4.0000,98.0000
1981-05-13 06:30:00 UTC,2444737.770833,29.7139,-93.4733,0049,4.99,-0.35,5.0000,94.0000
1981-05-13 07:00:00 UTC,2444737.791667,29.7139,-93.4733,0049,5.94,-0.84,6.0000,98.0000
1981-05-13 07:30:00 UTC,2444737.812500,29.7139,-93.4733,0049,5.91,-1.04,6.0000,100.0000
1981-05-13 08:00:00 UTC,2444737.833333,29.7139,-93.4733,0049,6.85,-1.46,7.0000,102.0000
1981-05-13 08:30:00 UTC,2444737.854167,29.7139,-93.4733,0049,6.85,-1.46,7.0000,102.0000
1981-05-13 09:00:00 UTC,2444737.875000,29.7139,-93.4733,0049,6.93,-0.97,7.0000,98.0000
1981-05-13 09:30:00 UTC,2444737.895833,29.7139,-93.4733,0049,6.95,-0.85,7.0000,97.0000
1981-05-13 10:00:00 UTC,2444737.916667,29.7139,-93.4733,0049,5.94,-0.84,6.0000,98.0000
1981-05-13 10:30:00 UTC,2444737.937500,29.7139,-93.4733,0049,5.98,-0.52,6.0000,95.0000
1981-05-13 11:00:00 UTC,2444737.958333,29.7139,-93.4733,0049,5.99,-0.31,6.0000,93.0000
1981-05-13 11:30:00 UTC,2444737.979167,29.7139,-93.4733,0049,5.99,-0.31,6.0000,93.0000
1981-05-13 12:00:00 UTC,2444738.000000,29.7139,-93.4733,0049,5.99,-0.31,6.0000,93.0000
1981-05-13 12:30:00 UTC,2444738.020833,29.7139,-93.4733,0049,6.00,-0.21,6.0000,92.0000
1981-05-13 13:00:00 UTC,2444738.041667,29.7139,-93.4733,0049,6.97,0.61,7.0000,85.0000
1981-05-13 13:30:00 UTC,2444738.062500,29.7139,-93.4733,0049,5.91,1.04,6.0000,80.0000
1981-05-13 14:00:00 UTC,2444738.083333,29.7139,-93.4733,0049,5.91,1.04,6.0000,80.0000
1981-05-13 14:30:00 UTC,2444738.104167,29.7139,-93.4733,0049,5.97,0.63,6.0000,84.0000
1981-05-13 15:00:00 UTC,2444738.125000,29.7139,-93.4733,0049,6.00,0.00,6.0000,90.0000
1981-05-13 15:30:00 UTC,2444738.145833,29.7139,-93.4733,0049,5.00,0.09,5.0000,89.0000
1981-05-13 16:00:00 UTC,2444738.166667,29.7139,-93.4733,0049,5.00,0.17,5.0000,88.0000
1981-05-13 16:30:00 UTC,2444738.187500,29.7139,-93.4733,0049,5.00,-0.17,5.0000,92.0000
1981-05-13 17:00:00 UTC,2444738.208333,29.7139,-93.4733,0049,4.87,-1.12,5.0000,103.0000
1981-05-13 17:30:00 UTC,2444738.229167,29.7139,-93.4733,0049,3.68,-1.56,4.0000,113.0000
1981-05-13 18:00:00 UTC,2444738.250000,29.7139,-93.4733,0049,3.46,-2.00,4.0000,120.0000
1981-05-13 18:30:00 UTC,2444738.270833,29.7139,-93.4733,0049,2.67,-1.36,3.0000,117.0000
1981-05-13 19:00:00 UTC,2444738.291667,29.7139,-93.4733,0049,2.65,-1.41,3.0000,118.0000
1981-05-13 19:30:00 UTC,2444738.312500,29.7139,-93.4733,0049,3.89,-3.15,5.0000,129.0000
1981-05-13 20:00:00 UTC,2444738.333333,29.7139,-93.4733,0049,5.09,-3.18,6.0000,122.0000
1981-05-13 20:30:00 UTC,2444738.354167,29.7139,-93.4733,0049,5.87,-1.25,6.0000,102.0000
1981-05-13 21:00:00 UTC,2444738.375000,29.7139,-93.4733,0049,4.99,-0.35,5.0000,94.0000
1981-05-13 21:30:00 UTC,2444738.395833,29.7139,-93.4733,0049,4.83,-1.29,5.0000,105.0000
1981-05-13 22:00:00 UTC,2444738.416667,29.7139,-93.4733,0049,4.60,-1.95,5.0000,113.0000
1981-05-13 22:30:00 UTC,2444738.437500,29.7139,-93.4733,0049,3.65,-1.63,4.0000,114.0000
1981-05-13 23:00:00 UTC,2444738.458333,29.7139,-93.4733,0049,2.78,-1.12,3.0000,112.0000
1981-05-13 23:30:00 UTC,2444738.479167,29.7139,-93.4733,0049,2.80,-1.08,3.0000,111.0000
1981-05-14 00:00:00 UTC,2444738.500000,29.7139,-93.4733,0049,2.90,-0.78,3.0000,105.0000
1981-05-14 00:30:00 UTC,2444738.520833,29.7139,-93.4733,0049,2.97,-0.42,3.0000,98.0000
1981-05-14 01:00:00 UTC,2444738.541667,29.7139,-93.4733,0049,1.92,-0.55,2.0000,106.0000
1981-05-14 01:30:00 UTC,2444738.562500,29.7139,-93.4733,0049,0.37,-0.93,1.0000,158.0000
1981-05-14 02:00:00 UTC,2444738.583333,29.7139,-93.4733,0049,-0.98,0.19,1.0000,281.0000
1981-05-14 02:30:00 UTC,2444738.604167,29.7139,-93.4733,0049,-0.87,0.48,1.0000,299.0000
1981-05-14 03:00:00 UTC,2444738.625000,29.7139,-93.4733,0049,-1.88,0.68,2.0000,290.0000
1981-05-14 03:30:00 UTC,2444738.645833,29.7139,-93.4733,0049,-2.76,1.17,3.0000,293.0000
1981-05-14 04:00:00 UTC,2444738.666667,29.7139,-93.4733,0049,-2.82,1.03,3.0000,290.0000
1981-05-14 04:30:00 UTC,2444738.687500,29.7139,-93.4733,0049,-3.91,0.83,4.0000,282.0000
1981-05-14 05:00:00 UTC,2444738.708333,29.7139,-93.4733,0049,-4.94,0.78,5.0000,279.0000
1981-05-14 05:30:00 UTC,2444738.729167,29.7139,-93.4733,0049,-4.89,1.04,5.0000,282.0000
1981-05-14 06:00:00 UTC,2444738.750000,29.7139,-93.4733,0049,-4.85,1.21,5.0000,284.0000
1981-05-14 06:30:00 UTC,2444738.770833,29.7139,-93.4733,0049,-3.95,0.63,4.0000,279.0000
1981-05-14 07:00:00 UTC,2444738.791667,29.7139,-93.4733,0049,-4.00,-0.07,4.0000,269.0000
1981-05-14 07:30:00 UTC,2444738.812500,29.7139,-93.4733,0049,-4.00,-0.00,4.0000,270.0000
1981-05-14 08:00:00 UTC,2444738.833333,29.7139,-93.4733,0049,-4.99,0.35,5.0000,274.0000
1981-05-14 08:30:00 UTC,2444738.854167,29.7139,-93.4733,0049,-3.98,-0.42,4.0000,264.0000
1981-05-14 09:00:00 UTC,2444738.875000,29.7139,-93.4733,0049,-3.68,-1.56,4.0000,247.0000
1981-05-14 09:30:00 UTC,2444738.895833,29.7139,-93.4733,0049,-2.74,-1.22,3.0000,246.0000
1981-05-14 10:00:00 UTC,2444738.916667,29.7139,-93.4733,0049,0.26,-0.97,1.0000,165.0000
1981-05-14 10:30:00 UTC,2444738.937500,29.7139,-93.4733,0049,3.15,-2.46,4.0000,128.0000
1981-05-14 11:00:00 UTC,2444738.958333,29.7139,-93.4733,0049,4.37,-2.42,5.0000,119.0000
1981-05-14 11:30:00 UTC,2444738.979167,29.7139,-93.4733,0049,5.97,-0.63,6.0000,96.0000
1981-05-14 12:00:00 UTC,2444739.000000,29.7139,-93.4733,0049,7.00,0.12,7.0000,89.0000
1981-05-14 12:30:00 UTC,2444739.020833,29.7139,-93.4733,0049,9.99,0.52,10.0000,87.0000
1981-05-14 13:00:00 UTC,2444739.041667,29.7139,-93.4733,0049,14.00,0.24,14.0000,89.0000
1981-05-14 13:30:00 UTC,2444739.062500,29.7139,-93.4733,0049,15.00,-0.26,15.0000,91.0000
1981-05-14 14:00:00 UTC,2444739.083333,29.7139,-93.4733,0049,14.92,1.57,15.0000,84.0000
1981-05-14 14:30:00 UTC,2444739.104167,29.7139,-93.4733,0049,16.42,4.40,17.0000,75.0000
1981-05-14 15:00:00 UTC,2444739.125000,29.7139,-93.4733,0049,17.30,4.96,18.0000,74.0000
1981-05-14 15:30:00 UTC,2444739.145833,29.7139,-93.4733,0049,16.50,4.11,17.0000,76.0000
1981-05-14 16:00:00 UTC,2444739.166667,29.7139,-93.4733,0049,15.30,4.68,16.0000,73.0000
1981-05-14 16:30:00 UTC,2444739.187500,29.7139,-93.4733,0049,13.21,10.70,17.0000,51.0000
1981-05-14 17:00:00 UTC,2444739.208333,29.7139,-93.4733,0049,10.23,13.58,17.0000,37.0000
1981-05-14 17:30:00 UTC,2444739.229167,29.7139,-93.4733,0049,6.92,8.55,11.0000,39.0000
1981-05-14 18:00:00 UTC,2444739.250000,29.7139,-93.4733,0049,4.09,8.02,9.0000,27.0000
1981-05-14 18:30:00 UTC,2444739.270833,29.7139,-93.4733,0049,2.33,8.69,9.0000,15.0000
1981-05-14 19:00:00 UTC,2444739.291667,29.7139,-93.4733,0049,3.80,8.16,9.0000,25.0000
1981-05-14 19:30:00 UTC,2444739.312500,29.7139,-93.4733,0049,6.92,8.55,11.0000,39.0000
1981-05-14 20:00:00 UTC,2444739.333333,29.7139,-93.4733,0049,8.92,8.03,12.0000,48.0000
1981-05-14 20:30:00 UTC,2444739.354167,29.7139,-93.4733,0049,10.29,6.18,12.0000,59.0000
1981-05-14 21:00:00 UTC,2444739.375000,29.7139,-93.4733,0049,11.78,5.49,13.0000,65.0000
1981-05-14 21:30:00 UTC,2444739.395833,29.7139,-93.4733,0049,14.83,5.99,16.0000,68.0000
1981-05-14 22:00:00 UTC,2444739.416667,29.7139,-93.4733,0049,16.91,6.16,18.0000,70.0000
1981-05-14 22:30:00 UTC,2444739.437500,29.7139,-93.4733,0049,16.17,5.25,17.0000,72.0000
1981-05-14 23:00:00 UTC,2444739.458333,29.7139,-93.4733,0049,13.24,4.56,14.0000,71.0000
1981-05-14 23:30:00 UTC,2444739.479167,29.7139,-93.4733,0049,12.98,5.24,14.0000,68.0000
1981-05-15 00:00:00 UTC,2444739.500000,29.7139,-93.4733,0049,14.34,4.39,15.0000,73.0000
1981-05-15 00:30:00 UTC,2444739.520833,29.7139,-93.4733,0049,14.62,3.37,15.0000,77.0000
1981-05-15 01:00:00 UTC,2444739.541667,29.7139,-93.4733,0049,16.07,5.53,17.0000,71.0000
1981-05-15 01:30:00 UTC,2444739.562500,29.7139,-93.4733,0049,17.85,6.50,19.0000,70.0000
1981-05-15 02:00:00 UTC,2444739.583333,29.7139,-93.4733,0049,16.26,4.97,17.0000,73.0000
1981-05-15 02:30:00 UTC,2444739.604167,29.7139,-93.4733,0049,13.46,3.86,14.0000,74.0000
1981-05-15 03:00:00 UTC,2444739.625000,29.7139,-93.4733,0049,10.20,4.12,11.0000,68.0000
1981-05-15 03:30:00 UTC,2444739.645833,29.7139,-93.4733,0049,7.55,4.90,9.0000,57.0000
1981-05-15 04:00:00 UTC,2444739.666667,29.7139,-93.4733,0049,7.19,5.42,9.0000,53.0000
1981-05-15 04:30:00 UTC,2444739.687500,29.7139,-93.4733,0049,8.30,7.22,11.0000,49.0000
1981-05-15 05:00:00 UTC,2444739.708333,29.7139,-93.4733,0049,9.37,10.40,14.0000,42.0000
1981-05-15 05:30:00 UTC,2444739.729167,29.7139,-93.4733,0049,9.37,10.40,14.0000,42.0000
1981-05-15 06:00:00 UTC,2444739.750000,29.7139,-93.4733,0049,9.19,7.71,12.0000,50.0000
1981-05-15 06:30:00 UTC,2444739.770833,29.7139,-93.4733,0049,9.81,8.53,13.0000,49.0000
1981-05-15 07:00:00 UTC,2444739.791667,29.7139,-93.4733,0049,11.15,10.04,15.0000,48.0000
1981-05-15 07:30:00 UTC,2444739.812500,29.7139,-93.4733,0049,12.12,7.00,14.0000,60.0000
1981-05-15 08:00:00 UTC,2444739.833333,29.7139,-93.4733,0049,11.85,1.88,12.0000,81.0000
1981-05-15 08:30:00 UTC,2444739.854167,29.7139,-93.4733,0049,10.86,-1.72,11.0000,99.0000
1981-05-15 09:00:00 UTC,2444739.875000,29.7139,-93.4733,0049,9.27,-3.75,10.0000,112.0000
1981-05-15 09:30:00 UTC,2444739.895833,29.7139,-93.4733,0049,7.06,-3.76,8.0000,118.0000
1981-05-15 10:00:00 UTC,2444739.916667,29.7139,-93.4733,0049,4.53,-3.94,6.0000,131.0000
1981-05-15 10:30:00 UTC,2444739.937500,29.7139,-93.4733,0049,1.38,-4.81,5.0000,164.0000
1981-05-15 11:00:00 UTC,2444739.958333,29.7139,-93.4733,0049,-1.63,-4.73,5.0000,199.0000
1981-05-15 11:30:00 UTC,2444739.979167,29.7139,-93.4733,0049,-2.29,-3.28,4.0000,215.0000
1981-05-15 12:00:00 UTC,2444740.000000,29.7139,-93.4733,0049,-2.40,-1.81,3.0000,233.0000
1981-05-15 12:30:00 UTC,2444740.020833,29.7139,-93.4733,0049,-3.78,-1.30,4.0000,251.0000
1981-05-15 13:00:00 UTC,2444740.041667,29.7139,-93.4733,0049,-5.74,-1.75,6.0000,253.0000
1981-05-15 13:30:00 UTC,2444740.062500,29.7139,-93.4733,0049,-8.00,-0.28,8.0000,268.0000
1981-05-15 14:00:00 UTC,2444740.083333,29.7139,-93.4733,0049,-11.88,1.67,12.0000,278.0000
1981-05-15 14:30:00 UTC,2444740.104167,29.7139,-93.4733,0049,-15.80,2.50,16.0000,279.0000
1981-05-15 15:00:00 UTC,2444740.125000,29.7139,-93.4733,0049,-17.47,4.35,18.0000,284.0000
1981-05-15 15:30:00 UTC,2444740.145833,29.7139,-93.4733,0049,-17.12,5.56,18.0000,288.0000
1981-05-15 16:00:00 UTC,2444740.166667,29.7139,-93.4733,0049,-17.30,4.96,18.0000,286.0000
1981-05-15 16:30:00 UTC,2444740.187500,29.7139,-93.4733,0049,-17.67,3.43,18.0000,281.0000
1981-05-15 17:00:00 UTC,2444740.208333,29.7139,-93.4733,0049,-18.82,2.64,19.0000,278.0000
1981-05-15 17:30:00 UTC,2444740.229167,29.7139,-93.4733,0049,-17.73,3.13,18.0000,280.0000
1981-05-15 18:00:00 UTC,2444740.250000,29.7139,-93.4733,0049,-18.77,2.97,19.0000,279.0000
1981-05-15 18:30:00 UTC,2444740.270833,29.7139,-93.4733,0049,-18.93,1.66,19.0000,275.0000
1981-05-15 19:00:00 UTC,2444740.291667,29.7139,-93.4733,0049,-17.96,1.26,18.0000,274.0000
1981-05-15 19:30:00 UTC,2444740.312500,29.7139,-93.4733,0049,-17.87,2.19,18.0000,277.0000
1981-05-15 20:00:00 UTC,2444740.333333,29.7139,-93.4733,0049,-14.92,1.57,15.0000,276.0000
1981-05-15 20:30:00 UTC,2444740.354167,29.7139,-93.4733,0049,-11.95,-1.05,12.0000,265.0000
1981-05-15 21:00:00 UTC,2444740.375000,29.7139,-93.4733,0049,-12.36,-4.02,13.0000,252.0000
1981-05-15 21:30:00 UTC,2444740.395833,29.7139,-93.4733,0049,-15.13,-5.21,16.0000,251.0000
1981-05-15 22:00:00 UTC,2444740.416667,29.7139,-93.4733,0049,-16.63,-3.53,17.0000,258.0000
1981-05-15 22:30:00 UTC,2444740.437500,29.7139,-93.4733,0049,-16.96,-1.19,17.0000,266.0000
1981-05-15 23:00:00 UTC,2444740.458333,29.7139,-93.4733,0049,-16.00,0.28,16.0000,271.0000
1981-05-15 23:30:00 UTC,2444740.479167,29.7139,-93.4733,0049,-13.90,1.71,14.0000,277.0000
1981-05-16 00:00:00 UTC,2444740.500000,29.7139,-93.4733,0049,-12.76,2.48,13.0000,281.0000
1981-05-16 00:30:00 UTC,2444740.520833,29.7139,-93.4733,0049,-11.88,1.67,12.0000,278.0000
1981-05-16 01:00:00 UTC,2444740.541667,29.7139,-93.4733,0049,-11.91,1.46,12.0000,277.0000
1981-05-16 01:30:00 UTC,2444740.562500,29.7139,-93.4733,0049,-12.67,2.92,13.0000,283.0000
1981-05-16 02:00:00 UTC,2444740.583333,29.7139,-93.4733,0049,-12.36,4.02,13.0000,288.0000
1981-05-16 02:30:00 UTC,2444740.604167,29.7139,-93.4733,0049,-11.41,3.71,12.0000,288.0000
1981-05-16 03:00:00 UTC,2444740.625000,29.7139,-93.4733,0049,-12.50,3.58,13.0000,286.0000
1981-05-16 03:30:00 UTC,2444740.645833,29.7139,-93.4733,0049,-13.24,4.56,14.0000,289.0000
1981-05-16 04:00:00 UTC,2444740.666667,29.7139,-93.4733,0049,-12.89,5.47,14.0000,293.0000
1981-05-16 04:30:00 UTC,2444740.687500,29.7139,-93.4733,0049,-13.59,6.34,15.0000,295.0000
1981-05-16 05:00:00 UTC,2444740.708333,29.7139,-93.4733,0049,-14.73,6.25,16.0000,293.0000
1981-05-16 05:30:00 UTC,2444740.729167,29.7139,-93.4733,0049,-16.80,6.45,18.0000,291.0000
1981-05-16 06:00:00 UTC,2444740.750000,29.7139,-93.4733,0049,-19.47,7.87,21.0000,292.0000
1981-05-16 06:30:00 UTC,2444740.770833,29.7139,-93.4733,0049,-20.80,7.16,22.0000,289.0000
1981-05-16 07:00:00 UTC,2444740.791667,29.7139,-93.4733,0049,-20.46,4.72,21.0000,283.0000
1981-05-16 07:30:00 UTC,2444740.812500,29.7139,-93.4733,0049,-21.44,4.95,22.0000,283.0000
1981-05-16 08:00:00 UTC,2444740.833333,29.7139,-93.4733,0049,-21.60,4.20,22.0000,281.0000
1981-05-16 08:30:00 UTC,2444740.854167,29.7139,-93.4733,0049,-21.67,3.82,22.0000,280.0000
1981-05-16 09:00:00 UTC,2444740.875000,29.7139,-93.4733,0049,-20.68,3.65,21.0000,280.0000
1981-05-16 09:30:00 UTC,2444740.895833,29.7139,-93.4733,0049,-20.84,2.56,21.0000,277.0000
1981-05-16 10:00:00 UTC,2444740.916667,29.7139,-93.4733,0049,-20.84,2.56,21.0000,277.0000
1981-05-16 10:30:00 UTC,2444740.937500,29.7139,-93.4733,0049,-21.79,3.06,22.0000,278.0000
1981-05-16 11:00:00 UTC,2444740.958333,29.7139,-93.4733,0049,-22.91,2.00,23.0000,275.0000
1981-05-16 11:30:00 UTC,2444740.979167,29.7139,-93.4733,0049,-24.00,0.42,24.0000,271.0000
1981-05-16 12:00:00 UTC,2444741.000000,29.7139,-93.4733,0049,-23.97,1.26,24.0000,273.0000
1981-05-16 12:30:00 UTC,2444741.020833,29.7139,-93.4733,0049,-23.94,1.67,24.0000,274.0000
1981-05-16 13:00:00 UTC,2444741.041667,29.7139,-93.4733,0049,-24.00,0.42,24.0000,271.0000
1981-05-16 13:30:00 UTC,2444741.062500,29.7139,-93.4733,0049,-25.96,1.36,26.0000,273.0000
1981-05-16 14:00:00 UTC,2444741.083333,29.7139,-93.4733,0049,-25.68,4.07,26.0000,279.0000
1981-05-16 14:30:00 UTC,2444741.104167,29.7139,-93.4733,0049,-25.52,4.96,26.0000,281.0000
1981-05-16 15:00:00 UTC,2444741.125000,29.7139,-93.4733,0049,-26.67,4.22,27.0000,279.0000
1981-05-16 15:30:00 UTC,2444741.145833,29.7139,-93.4733,0049,-27.73,3.90,28.0000,278.0000
1981-05-16 16:00:00 UTC,2444741.166667,29.7139,-93.4733,0049,-27.89,2.44,28.0000,275.0000
1981-05-16 16:30:00 UTC,2444741.187500,29.7139,-93.4733,0049,-30.83,3.24,31.0000,276.0000
1981-05-16 17:00:00 UTC,2444741.208333,29.7139,-93.4733,0049,-32.59,5.16,33.0000,279.0000
1981-05-16 17:30:00 UTC,2444741.229167,29.7139,-93.4733,0049,-33.58,5.32,34.0000,279.0000
1981-05-16 18:00:00 UTC,2444741.250000,29.7139,-93.4733,0049,-34.81,3.66,35.0000,276.0000
1981-05-16 18:30:00 UTC,2444741.270833,29.7139,-93.4733,0049,-35.80,3.76,36.0000,276.0000
1981-05-16 19:00:00 UTC,2444741.291667,29.7139,-93.4733,0049,-35.65,5.01,36.0000,278.0000
1981-05-16 19:30:00 UTC,2444741.312500,29.7139,-93.4733,0049,-36.91,2.58,37.0000,274.0000
1981-05-16 20:00:00 UTC,2444741.333333,29.7139,-93.4733,0049,-39.00,-0.00,39.0000,270.0000
1981-05-16 20:30:00 UTC,2444741.354167,29.7139,-93.4733,0049,-38.85,3.40,39.0000,275.0000
1981-05-16 21:00:00 UTC,2444741.375000,29.7139,-93.4733,0049,-35.34,6.87,36.0000,281.0000
1981-05-16 21:30:00 UTC,2444741.395833,29.7139,-93.4733,0049,-31.51,5.56,32.0000,280.0000
1981-05-16 22:00:00 UTC,2444741.416667,29.7139,-93.4733,0049,-32.92,2.30,33.0000,274.0000
1981-05-16 22:30:00 UTC,2444741.437500,29.7139,-93.4733,0049,-36.95,1.94,37.0000,273.0000
1981-05-16 23:00:00 UTC,2444741.458333,29.7139,-93.4733,0049,-40.84,3.57,41.0000,275.0000
1981-05-16 23:30:00 UTC,2444741.479167,29.7139,-93.4733,0049,-43.76,4.60,44.0000,276.0000
1981-05-17 00:00:00 UTC,2444741.500000,29.7139,-93.4733,0049,-43.94,2.30,44.0000,273.0000
1981-05-17 00:30:00 UTC,2444741.520833,29.7139,-93.4733,0049,-42.99,-0.75,43.0000,269.0000
1981-05-17 01:00:00 UTC,2444741.541667,29.7139,-93.4733,0049,-43.97,1.54,44.0000,272.0000
1981-05-17 01:30:00 UTC,2444741.562500,29.7139,-93.4733,0049,-41.59,5.85,42.0000,278.0000
1981-05-17 02:00:00 UTC,2444741.583333,29.7139,-93.4733,0049,-38.52,6.10,39.0000,279.0000
1981-05-17 02:30:00 UTC,2444741.604167,29.7139,-93.4733,0049,-36.54,5.79,37.0000,279.0000
1981-05-17 03:00:00 UTC,2444741.625000,29.7139,-93.4733,0049,-33.58,5.32,34.0000,279.0000
1981-05-17 03:30:00 UTC,2444741.645833,29.7139,-93.4733,0049,-32.75,4.02,33.0000,277.0000
1981-05-17 04:00:00 UTC,2444741.666667,29.7139,-93.4733,0049,-34.87,3.05,35.0000,275.0000
1981-05-17 04:30:00 UTC,2444741.687500,29.7139,-93.4733,0049,-37.72,4.63,38.0000,277.0000
1981-05-17 05:00:00 UTC,2444741.708333,29.7139,-93.4733,0049,-38.28,7.44,39.0000,281.0000
1981-05-17 05:30:00 UTC,2444741.729167,29.7139,-93.4733,0049,-36.87,9.19,38.0000,284.0000
1981-05-17 06:00:00 UTC,2444741.750000,29.7139,-93.4733,0049,-37.03,8.55,38.0000,283.0000
1981-05-17 06:30:00 UTC,2444741.770833,29.7139,-93.4733,0049,-40.25,7.82,41.0000,281.0000
1981-05-17 07:00:00 UTC,2444741.791667,29.7139,-93.4733,0049,-43.46,6.88,44.0000,279.0000
1981-05-17 07:30:00 UTC,2444741.812500,29.7139,-93.4733,0049,-43.57,6.12,44.0000,278.0000
1981-05-17 08:00:00 UTC,2444741.833333,29.7139,-93.4733,0049,-41.48,6.57,42.0000,279.0000
1981-05-17 08:30:00 UTC,2444741.854167,29.7139,-93.4733,0049,-38.52,6.10,39.0000,279.0000
1981-05-17 09:00:00 UTC,2444741.875000,29.7139,-93.4733,0049,-36.54,5.79,37.0000,279.0000
1981-05-17 09:30:00 UTC,2444741.895833,29.7139,-93.4733,0049,-36.54,5.79,37.0000,279.0000
1981-05-17 10:00:00 UTC,2444741.916667,29.7139,-93.4733,0049,-37.63,5.29,38.0000,278.0000
1981-05-17 10:30:00 UTC,2444741.937500,29.7139,-93.4733,0049,-38.71,4.75,39.0000,277.0000
1981-05-17 11:00:00 UTC,2444741.958333,29.7139,-93.4733,0049,-38.91,2.72,39.0000,274.0000
1981-05-17 11:30:00 UTC,2444741.979167,29.7139,-93.4733,0049,-37.98,1.33,38.0000,272.0000
1981-05-17 12:00:00 UTC,2444742.000000,29.7139,-93.4733,0049,-36.95,1.94,37.0000,273.0000
1981-05-17 12:30:00 UTC,2444742.020833,29.7139,-93.4733,0049,-35.73,4.39,36.0000,277.0000
1981-05-17 13:00:00 UTC,2444742.041667,29.7139,-93.4733,0049,-34.66,4.87,35.0000,278.0000
1981-05-17 13:30:00 UTC,2444742.062500,29.7139,-93.4733,0049,-32.82,3.45,33.0000,276.0000
1981-05-17 14:00:00 UTC,2444742.083333,29.7139,-93.4733,0049,-31.82,3.34,32.0000,276.0000
1981-05-17 14:30:00 UTC,2444742.104167,29.7139,-93.4733,0049,-30.88,2.70,31.0000,275.0000
1981-05-17 15:00:00 UTC,2444742.125000,29.7139,-93.4733,0049,-28.96,1.52,29.0000,273.0000
1981-05-17 15:30:00 UTC,2444742.145833,29.7139,-93.4733,0049,-27.96,1.47,28.0000,273.0000
1981-05-17 16:00:00 UTC,2444742.166667,29.7139,-93.4733,0049,-26.98,0.94,27.0000,272.0000
1981-05-17 16:30:00 UTC,2444742.187500,29.7139,-93.4733,0049,-26.93,1.88,27.0000,274.0000
1981-05-17 17:00:00 UTC,2444742.208333,29.7139,-93.4733,0049,-26.74,3.76,27.0000,278.0000
1981-05-17 17:30:00 UTC,2444742.229167,29.7139,-93.4733,0049,-26.80,3.29,27.0000,277.0000
1981-05-17 18:00:00 UTC,2444742.250000,29.7139,-93.4733,0049,-27.85,2.93,28.0000,276.0000
1981-05-17 18:30:00 UTC,2444742.270833,29.7139,-93.4733,0049,-28.84,3.03,29.0000,276.0000
1981-05-17 19:00:00 UTC,2444742.291667,29.7139,-93.4733,0049,-29.84,3.14,30.0000,276.0000
1981-05-17 19:30:00 UTC,2444742.312500,29.7139,-93.4733,0049,-31.88,2.79,32.0000,275.0000
1981-05-17 20:00:00 UTC,2444742.333333,29.7139,-93.4733,0049,-33.99,0.59,34.0000,271.0000
1981-05-17 20:30:00 UTC,2444742.354167,29.7139,-93.4733,0049,-35.00,-0.00,35.0000,270.0000
1981-05-17 21:00:00 UTC,2444742.375000,29.7139,-93.4733,0049,-35.95,1.88,36.0000,273.0000
1981-05-17 21:30:00 UTC,2444742.395833,29.7139,-93.4733,0049,-33.92,2.37,34.0000,274.0000
1981-05-17 22:00:00 UTC,2444742.416667,29.7139,-93.4733,0049,-30.98,1.08,31.0000,272.0000
1981-05-17 22:30:00 UTC,2444742.437500,29.7139,-93.4733,0049,-29.00,0.51,29.0000,271.0000
1981-05-17 23:00:00 UTC,2444742.458333,29.7139,-93.4733,0049,-29.00,-0.00,29.0000,270.0000
1981-05-17 23:30:00 UTC,2444742.479167,29.7139,-93.4733,0049,-28.98,-1.01,29.0000,268.0000
1981-05-18 00:00:00 UTC,2444742.500000,29.7139,-93.4733,0049,-28.96,-1.52,29.0000,267.0000
1981-05-18 00:30:00 UTC,2444742.520833,29.7139,-93.4733,0049,-28.96,-1.52,29.0000,267.0000
1981-05-18 01:00:00 UTC,2444742.541667,29.7139,-93.4733,0049,-27.96,-1.47,28.0000,267.0000
1981-05-18 01:30:00 UTC,2444742.562500,29.7139,-93.4733,0049,-27.00,-0.00,27.0000,270.0000
1981-05-18 02:00:00 UTC,2444742.583333,29.7139,-93.4733,0049,-25.94,1.81,26.0000,274.0000
1981-05-18 02:30:00 UTC,2444742.604167,29.7139,-93.4733,0049,-25.86,2.72,26.0000,276.0000
1981-05-18 03:00:00 UTC,2444742.625000,29.7139,-93.4733,0049,-27.73,3.90,28.0000,278.0000
1981-05-18 03:30:00 UTC,2444742.645833,29.7139,-93.4733,0049,-29.71,4.18,30.0000,278.0000
1981-05-18 04:00:00 UTC,2444742.666667,29.7139,-93.4733,0049,-30.62,4.85,31.0000,279.0000
1981-05-18 04:30:00 UTC,2444742.687500,29.7139,-93.4733,0049,-31.41,6.11,32.0000,281.0000
1981-05-18 05:00:00 UTC,2444742.708333,29.7139,-93.4733,0049,-32.15,7.42,33.0000,283.0000
1981-05-18 05:30:00 UTC,2444742.729167,29.7139,-93.4733,0049,-31.18,7.20,32.0000,283.0000
1981-05-18 06:00:00 UTC,2444742.750000,29.7139,-93.4733,0049,-32.28,6.86,33.0000,282.0000
1981-05-18 06:30:00 UTC,2444742.770833,29.7139,-93.4733,0049,-32.99,8.23,34.0000,284.0000
1981-05-18 07:00:00 UTC,2444742.791667,29.7139,-93.4733,0049,-34.10,7.87,35.0000,283.0000
1981-05-18 07:30:00 UTC,2444742.812500,29.7139,-93.4733,0049,-35.65,5.01,36.0000,278.0000
1981-05-18 08:00:00 UTC,2444742.833333,29.7139,-93.4733,0049,-35.86,3.14,36.0000,275.0000
1981-05-18 08:30:00 UTC,2444742.854167,29.7139,-93.4733,0049,-33.92,2.37,34.0000,274.0000
1981-05-18 09:00:00 UTC,2444742.875000,29.7139,-93.4733,0049,-31.00,0.54,31.0000,271.0000
1981-05-18 09:30:00 UTC,2444742.895833,29.7139,-93.4733,0049,-27.93,-1.95,28.0000,266.0000
1981-05-18 10:00:00 UTC,2444742.916667,29.7139,-93.4733,0049,-26.74,-3.76,27.0000,262.0000
1981-05-18 10:30:00 UTC,2444742.937500,29.7139,-93.4733,0049,-25.68,-4.07,26.0000,261.0000